ProjectID,Date,Electric Generation,Electric Utility Import,Facility Electric Load
,YYYY-MM-DD,kW,kW,kW
179,2014-01-01,0.0,,0.0
179,2014-01-02,0.0,,0.0
179,2014-01-03,0.0,,0.0
179,2014-01-04,0.0,,0.0
179,2014-01-05,0.0,,0.0
179,2014-01-06,0.0,,0.0
179,2014-01-07,0.0,,0.0
179,2014-01-08,0.0,,0.0
179,2014-01-09,0.0,,0.0
179,2014-01-10,0.0,,0.0
179,2014-01-11,0.0,,0.0
179,2014-01-12,0.0,,0.0
179,2014-01-13,0.0,,0.0
179,2014-01-14,0.0,,0.0
179,2014-01-15,0.0,,0.0
179,2014-01-16,0.0,,0.0
179,2014-01-17,0.0,,0.0
179,2014-01-18,0.0,,0.0
179,2014-01-19,0.0,,0.0
179,2014-01-20,0.0,,0.0
179,2014-01-21,0.07333333333333333,,0.07333333333333333
179,2014-01-22,0.28,,0.28
179,2014-01-23,0.5533333333333333,,0.5533333333333333
179,2014-01-24,1.0000000000000002,,1.0000000000000002
179,2014-01-25,0.17333333333333334,,0.17333333333333334
179,2014-01-26,0.04,,0.04
179,2014-01-27,0.13333333333333333,,0.13333333333333333
179,2014-01-28,0.7000000000000001,,0.7000000000000001
179,2014-01-29,1.1533333333333335,,1.1533333333333335
179,2014-01-30,1.1933333333333336,,1.1933333333333336
179,2014-01-31,0.7200000000000001,,0.7200000000000001
179,2014-02-01,0.7800000000000001,,0.7800000000000001
179,2014-02-02,0.4200000000000001,,0.4200000000000001
179,2014-02-03,0.0,,0.0
179,2014-02-04,0.0,,0.0
179,2014-02-05,0.0,,0.0
179,2014-02-06,0.0,,0.0
179,2014-02-07,0.0,,0.0
179,2014-02-08,0.0,,0.0
179,2014-02-09,0.0,,0.0
179,2014-02-10,0.0,,0.0
179,2014-02-11,0.0,,0.0
179,2014-02-12,0.0,,0.0
179,2014-02-13,0.0,,0.0
179,2014-02-14,0.0,,0.0
179,2014-02-15,0.0,,0.0
179,2014-02-16,0.0,,0.0
179,2014-02-17,0.0,,0.0
179,2014-02-18,0.0,,0.0
179,2014-02-19,0.0,,0.0
179,2014-02-20,0.0,,0.0
179,2014-02-21,0.0,,0.0
179,2014-02-22,0.0,,0.0
179,2014-02-23,0.0,,0.0
179,2014-02-24,0.0,,0.0
179,2014-02-25,0.0,,0.0
179,2014-02-26,0.0,,0.0
179,2014-02-27,0.0,,0.0
179,2014-02-28,0.0,,0.0
179,2014-03-01,0.0,,0.0
179,2014-03-02,0.0,,0.0
179,2014-03-03,0.0,,0.0
179,2014-03-04,0.0,,0.0
179,2014-03-05,0.0,,0.0
179,2014-03-06,0.0,,0.0
179,2014-03-07,0.0,,0.0
179,2014-03-08,0.0,,0.0
179,2014-03-09,0.0,,0.0
179,2014-03-10,0.0,,0.0
179,2014-03-11,0.0,,0.0
179,2014-03-12,13.306666666666667,,13.306666666666667
179,2014-03-13,54.56666666666666,,54.56666666666666
179,2014-03-14,46.580000000000005,,46.580000000000005
179,2014-03-15,53.919999999999995,,53.919999999999995
179,2014-03-16,57.24666666666667,,57.24666666666667
179,2014-03-17,56.559999999999995,,56.559999999999995
179,2014-03-18,66.76666666666665,,66.76666666666665
179,2014-03-19,21.36666666666667,,21.36666666666667
179,2014-03-20,41.526666666666664,,41.526666666666664
179,2014-03-21,64.80666666666667,,64.80666666666667
179,2014-03-22,55.599999999999994,,55.599999999999994
179,2014-03-23,33.9,,33.9
179,2014-03-24,70.12000000000002,,70.12000000000002
179,2014-03-25,51.973333333333336,,51.973333333333336
179,2014-03-26,68.88666666666667,,68.88666666666667
179,2014-03-27,69.36,,69.36
179,2014-03-28,10.706666666666663,,10.706666666666663
179,2014-03-29,15.926666666666668,,15.926666666666668
179,2014-03-30,16.94,,16.94
179,2014-03-31,68.5,,68.5
179,2014-04-01,65.10000000000002,,65.10000000000002
179,2014-04-02,41.446666666666665,,41.446666666666665
179,2014-04-03,68.80000000000001,,68.80000000000001
179,2014-04-04,9.6,,9.6
179,2014-04-05,46.21333333333334,,46.21333333333334
179,2014-04-06,81.20666666666666,,81.20666666666666
179,2014-04-07,24.373333333333335,,24.373333333333335
179,2014-04-08,44.56666666666666,,44.56666666666666
179,2014-04-09,71.64,,71.64
179,2014-04-10,81.87333333333333,,81.87333333333333
179,2014-04-11,29.539999999999996,,29.539999999999996
179,2014-04-12,79.50000000000001,,79.50000000000001
179,2014-04-13,59.01333333333333,,59.01333333333333
179,2014-04-14,50.71333333333334,,50.71333333333334
179,2014-04-15,8.533333333333335,,8.533333333333335
179,2014-04-16,84.25333333333334,,84.25333333333334
179,2014-04-17,85.97999999999998,,85.97999999999998
179,2014-04-18,58.89333333333334,,58.89333333333334
179,2014-04-19,85.39333333333332,,85.39333333333332
179,2014-04-20,85.53375,,85.53375
179,2014-04-21,84.70041666666667,,84.70041666666667
179,2014-04-22,47.19958333333333,,47.19958333333333
179,2014-04-23,44.93333333333334,,44.93333333333334
179,2014-04-24,91.20666666666669,,91.20666666666669
179,2014-04-25,74.94666666666667,,74.94666666666667
179,2014-04-26,51.693333333333335,,51.693333333333335
179,2014-04-27,47.58041666666666,,47.58041666666666
179,2014-04-28,84.14625,,84.14625
179,2014-04-29,13.547083333333335,,13.547083333333335
179,2014-04-30,9.567083333333334,,9.567083333333334
179,2014-05-01,55.092916666666675,,55.092916666666675
179,2014-05-02,54.86000000000001,,54.86000000000001
179,2014-05-03,59.48000000000001,,59.48000000000001
179,2014-05-04,76.96625000000002,,76.96625000000002
179,2014-05-05,89.27999999999999,,89.27999999999999
179,2014-05-06,62.060416666666676,,62.060416666666676
179,2014-05-07,78.96000000000001,,78.96000000000001
179,2014-05-08,24.526666666666667,,24.526666666666667
179,2014-05-09,16.933333333333334,,16.933333333333334
179,2014-05-10,56.326666666666675,,56.326666666666675
179,2014-05-11,91.0333333333333,,91.0333333333333
179,2014-05-12,57.51958333333332,,57.51958333333332
179,2014-05-13,66.16666666666666,,66.16666666666666
179,2014-05-14,68.50708333333333,,68.50708333333333
179,2014-05-15,17.86,,17.86
179,2014-05-16,0.0,,0.0
179,2014-05-17,0.0,,0.0
179,2014-05-18,0.0,,0.0
179,2014-05-19,0.0,,0.0
179,2014-05-20,0.0,,0.0
179,2014-05-21,0.0,,0.0
179,2014-05-22,44.54,,44.54
179,2014-05-23,50.02041666666667,,50.02041666666667
179,2014-05-24,50.76,,50.76
179,2014-05-25,80.66000000000001,,80.66000000000001
179,2014-05-26,81.02666666666667,,81.02666666666667
179,2014-05-27,67.14,,67.14
179,2014-05-28,19.16,,19.16
179,2014-05-29,86.33999999999999,,86.33999999999999
179,2014-05-30,0.0,,0.0
179,2014-05-31,81.26666666666667,,81.26666666666667
179,2014-06-01,91.39333333333333,,91.39333333333333
179,2014-06-02,91.29333333333331,,91.29333333333331
179,2014-06-03,64.03333333333333,,64.03333333333333
179,2014-06-04,66.37333333333332,,66.37333333333332
179,2014-06-05,51.76,,51.76
179,2014-06-06,72.74,,72.74
179,2014-06-07,84.71333333333334,,84.71333333333334
179,2014-06-08,82.73333333333333,,82.73333333333333
179,2014-06-09,13.713333333333331,,13.713333333333331
179,2014-06-10,31.38,,31.38
179,2014-06-11,17.253333333333334,,17.253333333333334
179,2014-06-12,9.353333333333333,,9.353333333333333
179,2014-06-13,31.186666666666667,,31.186666666666667
179,2014-06-14,67.88,,67.88
179,2014-06-15,91.39333333333333,,91.39333333333333
179,2014-06-16,85.26,,85.26
179,2014-06-17,82.82041666666667,,82.82041666666667
179,2014-06-18,82.99249999999999,,82.99249999999999
179,2014-06-19,53.473333333333336,,53.473333333333336
179,2014-06-20,91.26041666666667,,91.26041666666667
179,2014-06-21,85.56,,85.56
179,2014-06-22,86.39291666666666,,86.39291666666666
179,2014-06-23,69.03291666666667,,69.03291666666667
179,2014-06-24,67.27999999999999,,67.27999999999999
179,2014-06-25,47.859999999999985,,47.859999999999985
179,2014-06-26,67.98625,,67.98625
179,2014-06-27,85.99374999999998,,85.99374999999998
179,2014-06-28,85.32666666666667,,85.32666666666667
179,2014-06-29,68.26708333333333,,68.26708333333333
179,2014-06-30,67.39958333333334,,67.39958333333334
179,2014-07-01,73.25333333333332,,73.25333333333332
179,2014-07-02,50.92625,,50.92625
179,2014-07-03,51.24708333333333,,51.24708333333333
179,2014-07-04,21.89958333333333,,21.89958333333333
179,2014-07-05,95.4475,,95.4475
179,2014-07-06,92.94666666666667,,92.94666666666667
179,2014-07-07,80.66666666666667,,80.66666666666667
179,2014-07-08,74.16666666666667,,74.16666666666667
179,2014-07-09,76.57291666666666,,76.57291666666666
179,2014-07-10,72.05333333333333,,72.05333333333333
179,2014-07-11,88.36666666666666,,88.36666666666666
179,2014-07-12,72.14708333333333,,72.14708333333333
179,2014-07-13,39.49333333333333,,39.49333333333333
179,2014-07-14,28.313333333333336,,28.313333333333336
179,2014-07-15,34.11333333333334,,34.11333333333334
179,2014-07-16,72.23958333333334,,72.23958333333334
179,2014-07-17,67.13333333333334,,67.13333333333334
179,2014-07-18,78.83333333333333,,78.83333333333333
179,2014-07-19,62.966666666666676,,62.966666666666676
179,2014-07-20,78.03333333333335,,78.03333333333335
179,2014-07-21,83.97333333333334,,83.97333333333334
179,2014-07-22,75.62708333333335,,75.62708333333335
179,2014-07-23,65.61333333333332,,65.61333333333332
179,2014-07-24,47.77291666666667,,47.77291666666667
179,2014-07-25,82.26666666666667,,82.26666666666667
179,2014-07-26,51.84,,51.84
179,2014-07-27,64.82666666666665,,64.82666666666665
179,2014-07-28,53.32708333333333,,53.32708333333333
179,2014-07-29,62.38666666666666,,62.38666666666666
179,2014-07-30,80.29291666666667,,80.29291666666667
179,2014-07-31,73.39333333333333,,73.39333333333333
179,2014-08-01,52.65333333333333,,52.65333333333333
179,2014-08-02,60.113333333333344,,60.113333333333344
179,2014-08-03,47.27375,,47.27375
179,2014-08-04,69.61291666666666,,69.61291666666666
179,2014-08-05,77.55999999999999,,77.55999999999999
179,2014-08-06,75.24041666666666,,75.24041666666666
179,2014-08-07,72.61958333333335,,72.61958333333335
179,2014-08-08,71.53333333333335,,71.53333333333335
179,2014-08-09,79.82041666666666,,79.82041666666666
179,2014-08-10,75.72000000000001,,75.72000000000001
179,2014-08-11,67.00625,,67.00625
179,2014-08-12,20.907083333333333,,20.907083333333333
179,2014-08-13,46.13999999999999,,46.13999999999999
179,2014-08-14,62.366666666666674,,62.366666666666674
179,2014-08-15,51.539583333333326,,51.539583333333326
179,2014-08-16,66.86,,66.86
179,2014-08-17,58.20708333333334,,58.20708333333334
179,2014-08-18,78.25333333333333,,78.25333333333333
179,2014-08-19,78.89958333333334,,78.89958333333334
179,2014-08-20,56.227083333333326,,56.227083333333326
179,2014-08-21,41.00666666666667,,41.00666666666667
179,2014-08-22,11.273333333333332,,11.273333333333332
179,2014-08-23,44.426666666666655,,44.426666666666655
179,2014-08-24,66.43333333333335,,66.43333333333335
179,2014-08-25,73.2670833333333,,73.2670833333333
179,2014-08-26,72.93333333333334,,72.93333333333334
179,2014-08-27,66.73958333333333,,66.73958333333333
179,2014-08-28,62.493750000000006,,62.493750000000006
179,2014-08-29,76.52666666666667,,76.52666666666667
179,2014-08-30,49.166666666666686,,49.166666666666686
179,2014-08-31,29.37291666666667,,29.37291666666667
179,2014-09-01,46.666666666666664,,46.666666666666664
179,2014-09-02,57.80666666666665,,57.80666666666665
179,2014-09-03,66.49999999999999,,66.49999999999999
179,2014-09-04,67.02041666666666,,67.02041666666666
179,2014-09-05,45.166666666666664,,45.166666666666664
179,2014-09-06,45.94624999999999,,45.94624999999999
179,2014-09-07,70.32708333333333,,70.32708333333333
179,2014-09-08,57.98041666666666,,57.98041666666666
179,2014-09-09,42.63916666666667,,42.63916666666667
179,2014-09-10,61.25375,,61.25375
179,2014-09-11,18.999999999999996,,18.999999999999996
179,2014-09-12,68.24625000000002,,68.24625000000002
179,2014-09-13,10.739583333333336,,10.739583333333336
179,2014-09-14,65.88666666666668,,65.88666666666668
179,2014-09-15,60.160000000000004,,60.160000000000004
179,2014-09-16,39.98708333333334,,39.98708333333334
179,2014-09-17,60.04666666666666,,60.04666666666666
179,2014-09-18,62.16041666666667,,62.16041666666667
179,2014-09-19,66.46625,,66.46625
179,2014-09-20,42.08708333333333,,42.08708333333333
179,2014-09-21,41.946666666666665,,41.946666666666665
179,2014-09-22,55.752500000000005,,55.752500000000005
179,2014-09-23,64.60041666666666,,64.60041666666666
179,2014-09-24,47.45333333333334,,47.45333333333334
179,2014-09-25,22.354166666666668,,22.354166666666668
179,2014-09-26,61.91916666666666,,61.91916666666666
179,2014-09-27,59.459583333333335,,59.459583333333335
179,2014-09-28,53.166666666666664,,53.166666666666664
179,2014-09-29,28.46083333333333,,28.46083333333333
179,2014-09-30,30.03916666666666,,30.03916666666666
179,2014-10-01,11.147083333333335,,11.147083333333335
179,2014-10-02,26.172916666666666,,26.172916666666666
179,2014-10-03,57.13958333333332,,57.13958333333332
179,2014-10-04,10.053333333333333,,10.053333333333333
179,2014-10-05,58.95458333333334,,58.95458333333334
179,2014-10-06,54.39291666666666,,54.39291666666666
179,2014-10-07,38.87916666666666,,38.87916666666666
179,2014-10-08,48.58041666666667,,48.58041666666667
179,2014-10-09,44.453333333333326,,44.453333333333326
179,2014-10-10,41.527499999999996,,41.527499999999996
179,2014-10-11,17.553333333333338,,17.553333333333338
179,2014-10-12,55.39958333333333,,55.39958333333333
179,2014-10-13,14.914166666666667,,14.914166666666667
179,2014-10-14,27.199166666666667,,27.199166666666667
179,2014-10-15,30.659999999999997,,30.659999999999997
179,2014-10-16,28.467500000000005,,28.467500000000005
179,2014-10-17,41.00666666666667,,41.00666666666667
179,2014-10-18,18.94,,18.94
179,2014-10-19,39.600416666666675,,39.600416666666675
179,2014-10-20,36.19375,,36.19375
179,2014-10-21,14.547083333333333,,14.547083333333333
179,2014-10-22,5.666666666666667,,5.666666666666667
179,2014-10-23,7.613333333333333,,7.613333333333333
179,2014-10-24,24.82541666666667,,24.82541666666667
179,2014-10-25,43.68083333333333,,43.68083333333333
179,2014-10-26,19.145833333333332,,19.145833333333332
179,2014-10-27,45.38666666666666,,45.38666666666666
179,2014-10-28,40.087500000000006,,40.087500000000006
179,2014-10-29,13.485833333333334,,13.485833333333334
179,2014-10-30,27.599999999999998,,27.599999999999998
179,2014-10-31,25.439999999999998,,25.439999999999998
179,2014-11-01,8.99375,,8.99375
179,2014-11-02,35.25416666666667,,35.25416666666667
179,2014-11-03,41.69375,,41.69375
179,2014-11-04,36.645833333333336,,36.645833333333336
179,2014-11-05,15.89333333333333,,15.89333333333333
179,2014-11-06,3.59375,,3.59375
179,2014-11-07,19.320416666666667,,19.320416666666667
179,2014-11-08,39.24750000000001,,39.24750000000001
179,2014-11-09,30.059583333333336,,30.059583333333336
179,2014-11-10,36.85958333333333,,36.85958333333333
179,2014-11-11,20.2475,,20.2475
179,2014-11-12,16.50625,,16.50625
179,2014-11-13,20.493333333333332,,20.493333333333332
179,2014-11-14,30.254166666666666,,30.254166666666666
179,2014-11-15,37.166666666666664,,37.166666666666664
179,2014-11-16,10.006666666666666,,10.006666666666666
179,2014-11-17,2.9791666666666665,,2.9791666666666665
179,2014-11-18,36.88666666666667,,36.88666666666667
179,2014-11-19,35.460833333333326,,35.460833333333326
179,2014-11-20,33.79958333333334,,33.79958333333334
179,2014-11-21,29.985416666666662,,29.985416666666662
179,2014-11-22,30.37875,,30.37875
179,2014-11-23,20.586250000000003,,20.586250000000003
179,2014-11-24,13.6875,,13.6875
179,2014-11-25,16.025833333333335,,16.025833333333335
179,2014-11-26,-1.09375,,-1.09375
179,2014-11-27,-1.2945833333333334,,-1.2945833333333334
179,2014-11-28,-1.2879166666666666,,-1.2879166666666666
179,2014-11-29,-1.2941666666666665,,-1.2941666666666665
179,2014-11-30,-1.1929166666666666,,-1.1929166666666666
179,2014-12-01,2.0400000000000005,,2.0400000000000005
179,2014-12-02,8.6,,8.6
179,2014-12-03,4.63375,,4.63375
179,2014-12-04,27.952916666666663,,27.952916666666663
179,2014-12-05,7.16,,7.16
179,2014-12-06,2.27375,,2.27375
179,2014-12-07,28.906250000000004,,28.906250000000004
179,2014-12-08,10.645833333333334,,10.645833333333334
179,2014-12-09,1.16,,1.16
179,2014-12-10,6.006666666666667,,6.006666666666667
179,2014-12-11,14.134166666666667,,14.134166666666667
179,2014-12-12,19.653750000000002,,19.653750000000002
179,2014-12-13,23.705833333333334,,23.705833333333334
179,2014-12-14,14.919166666666667,,14.919166666666667
179,2014-12-15,27.598750000000006,,27.598750000000006
179,2014-12-16,5.047083333333334,,5.047083333333334
179,2014-12-17,13.993333333333332,,13.993333333333332
179,2014-12-18,10.134166666666667,,10.134166666666667
179,2014-12-19,13.820416666666668,,13.820416666666668
179,2014-12-20,7.9191666666666665,,7.9191666666666665
179,2014-12-21,6.207083333333333,,6.207083333333333
179,2014-12-22,6.87375,,6.87375
179,2014-12-23,5.087083333333333,,5.087083333333333
179,2014-12-24,1.8800000000000006,,1.8800000000000006
179,2014-12-25,16.514166666666664,,16.514166666666664
179,2014-12-26,28.145833333333332,,28.145833333333332
179,2014-12-27,27.732916666666668,,27.732916666666668
179,2014-12-28,5.513333333333333,,5.513333333333333
179,2014-12-29,25.506249999999998,,25.506249999999998
179,2014-12-30,23.606666666666666,,23.606666666666666
179,2014-12-31,18.55333333333333,,18.55333333333333
179,2015-01-01,29.50000000000001,,29.50000000000001
179,2015-01-02,16.179583333333333,,16.179583333333333
179,2015-01-03,5.2058333333333335,,5.2058333333333335
179,2015-01-04,0.7187500000000001,,0.7187500000000001
179,2015-01-05,22.78,,22.78
179,2015-01-06,2.90625,,2.90625
179,2015-01-07,11.446666666666667,,11.446666666666667
179,2015-01-08,31.333333333333332,,31.333333333333332
179,2015-01-09,0.7995833333333335,,0.7995833333333335
179,2015-01-10,6.854166666666667,,6.854166666666667
179,2015-01-11,5.859166666666667,,5.859166666666667
179,2015-01-12,1.96,,1.96
179,2015-01-13,34.6875,,34.6875
179,2015-01-14,23.95958333333333,,23.95958333333333
179,2015-01-15,34.158750000000005,,34.158750000000005
179,2015-01-16,21.46625,,21.46625
179,2015-01-17,34.20708333333334,,34.20708333333334
179,2015-01-18,2.9999999999999996,,2.9999999999999996
179,2015-01-19,15.180833333333332,,15.180833333333332
179,2015-01-20,0.0,,0.0
179,2015-01-21,25.745833333333334,,25.745833333333334
179,2015-01-22,23.346249999999994,,23.346249999999994
179,2015-01-23,37.00000000000001,,37.00000000000001
179,2015-01-24,-1.2670833333333333,,-1.2670833333333333
179,2015-01-25,-0.8270833333333333,,-0.8270833333333333
179,2015-01-26,-1.2058333333333333,,-1.2058333333333333
179,2015-01-27,-0.9595833333333333,,-0.9595833333333333
179,2015-01-28,-0.42041666666666666,,-0.42041666666666666
179,2015-01-29,-0.4870833333333333,,-0.4870833333333333
179,2015-01-30,-1.1195833333333334,,-1.1195833333333334
179,2015-01-31,1.6537499999999998,,1.6537499999999998
179,2015-02-01,5.173333333333333,,5.173333333333333
179,2015-02-02,0.0,,0.0
179,2015-02-03,0.0,,0.0
179,2015-02-04,-1.0275,,-1.0275
179,2015-02-05,0.1195833333333333,,0.1195833333333333
179,2015-02-06,0.6600000000000003,,0.6600000000000003
179,2015-02-07,-0.06624999999999996,,-0.06624999999999996
179,2015-02-08,-0.21333333333333337,,-0.21333333333333337
179,2015-02-09,-1.2929166666666667,,-1.2929166666666667
179,2015-02-10,-1.2199999999999998,,-1.2199999999999998
179,2015-02-11,-1.1795833333333332,,-1.1795833333333332
179,2015-02-12,-1.28,,-1.28
179,2015-02-13,-0.97375,,-0.97375
179,2015-02-14,-1.3333333333333333,,-1.3333333333333333
179,2015-02-15,-0.7537499999999998,,-0.7537499999999998
179,2015-02-16,-0.6862499999999999,,-0.6862499999999999
179,2015-02-17,-0.8125,,-0.8125
179,2015-02-18,-0.24749999999999994,,-0.24749999999999994
179,2015-02-19,0.1525,,0.1525
179,2015-02-20,1.7058333333333333,,1.7058333333333333
179,2015-02-21,-0.3541666666666667,,-0.3541666666666667
179,2015-02-22,-0.8866666666666667,,-0.8866666666666667
179,2015-02-23,0.4337500000000001,,0.4337500000000001
179,2015-02-24,1.4129166666666662,,1.4129166666666662
179,2015-02-25,2.859166666666667,,2.859166666666667
179,2015-02-26,0.8266666666666667,,0.8266666666666667
179,2015-02-27,3.5875000000000004,,3.5875000000000004
179,2015-02-28,3.946666666666667,,3.946666666666667
179,2015-03-01,-1.3866666666666667,,-1.3866666666666667
179,2015-03-02,2.4074999999999998,,2.4074999999999998
179,2015-03-03,1.066666666666667,,1.066666666666667
179,2015-03-04,-1.0466666666666669,,-1.0466666666666669
179,2015-03-05,-1.1408333333333334,,-1.1408333333333334
179,2015-03-06,1.7670833333333336,,1.7670833333333336
179,2015-03-07,2.273333333333333,,2.273333333333333
179,2015-03-08,3.12625,,3.12625
179,2015-03-09,5.493333333333333,,5.493333333333333
179,2015-03-10,3.94,,3.94
179,2015-03-11,31.78625,,31.78625
179,2015-03-12,67.29291666666668,,67.29291666666668
179,2015-03-13,60.205833333333324,,60.205833333333324
179,2015-03-14,13.074166666666668,,13.074166666666668
179,2015-03-15,20.82041666666667,,20.82041666666667
179,2015-03-16,41.90625,,41.90625
179,2015-03-17,32.71999999999999,,32.71999999999999
179,2015-03-18,57.80708333333334,,57.80708333333334
179,2015-03-19,75.22666666666667,,75.22666666666667
179,2015-03-20,12.820000000000002,,12.820000000000002
179,2015-03-21,16.679583333333333,,16.679583333333333
179,2015-03-22,74.38666666666666,,74.38666666666666
179,2015-03-23,78.32666666666667,,78.32666666666667
179,2015-03-24,71.44,,71.44
179,2015-03-25,40.45291666666667,,40.45291666666667
179,2015-03-26,16.886666666666667,,16.886666666666667
179,2015-03-27,25.607083333333335,,25.607083333333335
179,2015-03-28,45.49333333333333,,45.49333333333333
179,2015-03-29,79.95291666666667,,79.95291666666667
179,2015-03-30,38.12750000000001,,38.12750000000001
179,2015-03-31,30.966250000000006,,30.966250000000006
179,2015-04-01,68.48708333333333,,68.48708333333333
179,2015-04-02,72.17999999999998,,72.17999999999998
179,2015-04-03,14.740833333333333,,14.740833333333333
179,2015-04-04,61.56,,61.56
179,2015-04-05,52.47916666666666,,52.47916666666666
179,2015-04-06,66.82041666666667,,66.82041666666667
179,2015-04-07,17.032500000000002,,17.032500000000002
179,2015-04-08,16.75375,,16.75375
179,2015-04-09,12.640416666666665,,12.640416666666665
179,2015-04-10,20.365833333333338,,20.365833333333338
179,2015-04-11,66.48708333333333,,66.48708333333333
179,2015-04-12,81.86625000000002,,81.86625000000002
179,2015-04-13,69.48041666666666,,69.48041666666666
179,2015-04-14,39.746249999999996,,39.746249999999996
179,2015-04-15,74.78666666666668,,74.78666666666668
179,2015-04-16,76.81375000000001,,76.81375000000001
179,2015-04-17,38.846250000000005,,38.846250000000005
179,2015-04-18,78.75916666666667,,78.75916666666667
179,2015-04-19,77.76041666666664,,77.76041666666664
179,2015-04-20,12.207083333333335,,12.207083333333335
179,2015-04-21,63.48666666666667,,63.48666666666667
179,2015-04-22,39.22625,,39.22625
179,2015-04-23,51.89291666666668,,51.89291666666668
179,2015-04-24,39.787916666666675,,39.787916666666675
179,2015-04-25,88.97291666666666,,88.97291666666666
179,2015-04-26,64.93374999999999,,64.93374999999999
179,2015-04-27,53.459583333333335,,53.459583333333335
179,2015-04-28,74.05958333333332,,74.05958333333332
179,2015-04-29,84.6325,,84.6325
179,2015-04-30,76.87375000000002,,76.87375000000002
179,2015-05-01,47.933749999999996,,47.933749999999996
179,2015-05-02,80.54041666666666,,80.54041666666666
179,2015-05-03,73.26041666666666,,73.26041666666666
179,2015-05-04,82.38041666666665,,82.38041666666665
179,2015-05-05,73.5,,73.5
179,2015-05-06,36.93333333333334,,36.93333333333334
179,2015-05-07,82.96624999999999,,82.96624999999999
179,2015-05-08,79.4,,79.4
179,2015-05-09,65.60666666666665,,65.60666666666665
179,2015-05-10,80.12624999999998,,80.12624999999998
179,2015-05-11,66.23958333333333,,66.23958333333333
179,2015-05-12,58.527499999999996,,58.527499999999996
179,2015-05-13,51.06000000000001,,51.06000000000001
179,2015-05-14,88.07291666666667,,88.07291666666667
179,2015-05-15,66.42583333333333,,66.42583333333333
179,2015-05-16,51.03375,,51.03375
179,2015-05-17,68.39999999999999,,68.39999999999999
179,2015-05-18,23.786666666666665,,23.786666666666665
179,2015-05-19,57.779583333333335,,57.779583333333335
179,2015-05-20,67.62791666666666,,67.62791666666666
179,2015-05-21,63.19416666666667,,63.19416666666667